Home   Weather   Burleson   Past weeks
Flag for USA

Past Weather in Burleson, Texas, USA — Yesterday and Last 2 Weeks

Now
66 °F

Sunny.


Feels Like: 66 °F
Forecast: 80 / 60 °F
Wind: 7 mph from Southeast

Location: Burleson-Rendon

Current Time: Oct 14, 2019 at 10:38:45 am

Latest Report: Oct 14, 2019 at 9:47 am


Visibility: 10 mi

Pressure: 30.03 "Hg

Humidity: 73%

Dew Point: 57 °F

Location of BurlesonLocation

Past Weather in Burleson — Graph

°F

Burleson Temperature Yesterday

Maximum temperature yesterday: 79 °F (at 2:52 pm)
Minimum temperature yesterday: 51 °F (at 1:55 am)
Average temperature yesterday: 62 °F

High & Low Weather Summary for the Past Weeks

 TemperatureHumidityPressure
High99 °F (Oct 6, 2:51 pm)100% (Oct 12, 7:52 am)30.32 "Hg (Oct 12, 7:52 am)
Low36 °F (Oct 12, 7:52 am)15% (Oct 12, 4:51 pm)29.73 "Hg (Oct 10, 7:55 pm)
Average73 °F62%30.03 "Hg
* Reported Sep 29 8:49 am — Oct 14 8:47 am, Burleson. Weather by CustomWeather, © 2019

Note: Actual official high and low records may vary slightly from our data, if they occured in-between our weather recording intervals... More about our weather records

Advertising

Burleson Weather History for the Previous 24 Hours

Scroll right to see more
 ConditionsComfort  
Time TempWeatherWind HumidityBarometerVisibility
8:47 am
Mon, Oct 14
63 °FSunny.5 mph83%30.00 "Hg10 mi
7:47 am63 °FSunny.No wind77%30.00 "Hg10 mi
6:45 am63 °FPassing clouds.No wind77%29.99 "Hg10 mi
6:35 am63 °FPassing clouds.No wind78%30.00 "Hg10 mi
6:15 am63 °FClear.No wind76%29.99 "Hg10 mi
5:55 am63 °FClear.6 mph77%29.99 "Hg10 mi
5:35 am63 °FClear.No wind75%29.99 "Hg10 mi
5:15 am62 °FClear.3 mph76%29.98 "Hg10 mi
4:55 am61 °FClear.6 mph78%29.98 "Hg10 mi
4:35 am61 °FClear.3 mph77%29.98 "Hg10 mi
4:15 am62 °FClear.No wind74%29.98 "Hg10 mi
3:55 am62 °FClear.5 mph72%29.98 "Hg10 mi
3:35 am61 °FClear.5 mph75%29.98 "Hg10 mi
3:15 am60 °FClear.3 mph76%29.99 "Hg10 mi
2:55 am60 °FClear.5 mph76%30.00 "Hg10 mi
2:35 am60 °FClear.5 mph76%30.00 "Hg10 mi
2:15 am60 °FClear.No wind75%30.00 "Hg10 mi
1:55 am59 °FClear.5 mph75%29.99 "Hg7 mi
1:35 am58 °FClear.No wind76%29.99 "Hg10 mi
1:15 am59 °FClear.No wind75%29.99 "Hg10 mi
12:55 am59 °FClear.No wind74%30.00 "Hg10 mi
12:35 am60 °FClear.3 mph73%30.00 "Hg10 mi
12:15 am60 °FClear.3 mph73%30.00 "Hg10 mi
11:55 pm
Sun, Oct 13
61 °FClear.5 mph71%30.00 "Hg10 mi
11:35 pm61 °FClear.3 mph69%30.00 "Hg10 mi
11:15 pm63 °FClear.6 mph66%30.00 "Hg10 mi
10:55 pm61 °FClear.6 mph68%30.00 "Hg10 mi
10:35 pm63 °FClear.5 mph64%30.00 "Hg10 mi
10:15 pm63 °FClear.5 mph61%30.00 "Hg10 mi
9:55 pm63 °FClear.5 mph65%30.00 "Hg10 mi
9:35 pm62 °FClear.5 mph67%29.99 "Hg10 mi
9:15 pm63 °FClear.5 mph62%29.99 "Hg10 mi
8:55 pm63 °FClear.6 mph60%29.99 "Hg10 mi
8:35 pm64 °FClear.6 mph57%29.99 "Hg10 mi
8:15 pm66 °FClear.5 mph54%29.98 "Hg10 mi
7:55 pm67 °FClear.7 mph52%29.98 "Hg10 mi
6:49 pm72 °FSunny.12 mph41%29.96 "Hg10 mi
5:50 pm75 °FSunny.9 mph34%29.95 "Hg10 mi
4:53 pm79 °FSunny.12 mph30%29.95 "Hg10 mi
3:50 pm79 °FSunny.12 mph30%29.96 "Hg10 mi
2:52 pm79 °FSunny.15 mph26%29.97 "Hg10 mi
1:53 pm77 °FSunny.9 mph26%30.00 "Hg10 mi
12:50 pm75 °FSunny.7 mph25%30.03 "Hg10 mi
11:53 am73 °FSunny.9 mph25%30.05 "Hg10 mi
10:53 am70 °FPassing clouds.9 mph33%30.07 "Hg10 mi
Weather by CustomWeather, © 2019

See weather overview